ilmateenistus.ee keskkonnaagentuur.ee
EETN Tallinna lennuväli
FTEO31 EETN 171700
TAF EETN 171705Z 1718/1818 31014KT 8000 BKN008 OVC015 TEMPO 1718/1721
    3000 FZDZ SG OVC005 BECMG 1800/1801 VRB02KT TEMPO 1803/1816 2000 SHSN
    BKN010 SCT015CB PROB40 TEMPO 1803/1806 -FZDZ=

METAR EETN 172050Z 31013KT 9999 OVC014 M06/M07 Q0990 R08/450294 NOSIG=
Tallinna lennuväli
EEKA Kärdla lennuväli
METAR EEKA 171950Z NIL=
Kärdla lennuväli
EEKE Kuressaare lennuväli
FCEO32 EETN 171500 AAA
TAF AMD EEKE 171900Z 1716/1722 CNL=

METAR EEKE 172050Z AUTO 33006G17KT 290V010 9999NDV SCT025 SCT045 OVC051 M02/M05 Q0993=
Kuressaare lennuväli
EEPU Pärnu lennuväli
METAR EEPU 171950Z NIL=
Pärnu lennuväli
EETU Tartu lennuväli
METAR EETU 172050Z 28015KT 9999 OVC022 M02/M07 Q0988=
Tartu lennuväli
EEEI Ämari lennuväli
METAR EEEI 172050Z 30009KT 9999 OVC014 M05/M08 Q0991 R24/290095=
Ämari lennuväli